Tracking 29495 objects as of 7-Sep-2024
HD Live streaming from Space Station
objects crossing your sky now

THOR ABLESTAR DEB

Track THOR ABLESTAR DEB now!
10-day predictions


NORAD ID: 3842
Int'l Code: 1961-015JF
Perigee: 903.8 km
Apogee: 1,099.2 km
Inclination: 66.7 °
Period: 105.0 minutes
Semi major axis: 7372 km
RCS: 0.0118 m2 (small)
Launch date: June 29, 1961
Source: United States (US)
Launch site: AIR FORCE EASTERN TEST RANGE (AFETR)

Note: This is SATELLITE DEBRIS
Your satellite tracking list
Your tracking list is empty




NASA's NSSDC Master Catalog

Two Line Element Set (TLE):
1  3842U 61015JF  24250.99391275  .00000842  00000-0  95467-3 0  9996
2  3842  66.7369 120.1753 0132494 183.3320 176.6881 13.71449398146791
Source of the keplerian elements: AFSPC